STARLINK-2039, 47655

Orbit data source: Space-Track

STARLINK-2039, 47655 is a payload satellite owned by SpaceX/Seattle (US) in LEO that was launched on Tue, 16 Feb 2021 UTC via an FALCON 9 launch vehicle from the Air Force Eastern Test Range (AFETR). Payload-class satellites include a variety of spacecraft equipped with specific instruments for various scientific and technological missions. These include communications satellites like Starlink; space stations such as the ISS; scientific satellites like the Hubble; Earth observation satellites from companies like Planet Labs, Umbra, and HawkEye 360; GPS; miniature CubeSats for education and research; and military/defense satellites.

Loading next visibility...
Identifier
47655, 2021-012AM
Orbit
LEO
Country
Flag of USUS
Related business
Manufacturer
SpaceX/Seattle
Mission
Operational Commercial Communications
Bus & Motor
STARLINK, Unknown motor
Mass
260 kg wet, ~248 kg dry
Launch date (UTC)
2021-02-16 (5 years ago)
Launch vehicle
FALCON 9
Launch site
Air Force Eastern Test Range (AFETR)
Object type
Payload
Rocket body
Debris
Shape & HBR
Box + 1 Pan, 4.4 m
Radar Cross Section
13.562 m², Large (>1 m²)

Expand to show TLE details & history
Last TLE update: 22 hours ago

TLE from 22 hours ago
0 STARLINK-2039
1 47655U 21012AM  25241.20814078  .00001210  00000-0  10009-3 0  9994
2 47655  53.0545 215.7024 0001151  85.3403 274.7717 15.06412179250977
Epoch: 2025-08-29T04:59Z
TLE epoch observation values (Epoch: 2025-08-29T04:59:43.363Z)
Latitude
-0.00005°
Longitude
163.11159°
Altitude
547.987 km
Speed
7.589 km/s
True Right ascension
14h 22m 48s
True Declination
0° 00' 00"
Sunlit
Object was in daylight at epoch
Visualization orbit readout
Latitude
Unknown
Longitude
Unknown
Altitude
Unknown
Speed
Unknown
Apparent Right ascension
Unknown
Apparent Declination
Unknown
Sunlit
N/A
Visualization observer readout
Local Sidereal Time
18:05:30
Azimuth
Unknown
Elevation
Unknown
Doppler factor
Unknown
Orbital elements
Apogee altitude
548.242 km
Perigee altitude
546.648 km
Semi-major axis
6,925.582 km
Eccentricity
0.00012
Inclination
53.0545°
RAAN
215.7024°
Arg. of periapsis
85.3403°
True anomaly
274.75856°
Mean anomaly
274.7717°
Eccentric anomaly
274.76513°
Mean motion
3.76581 °/min
Orbital period
95.6 mins
BSTAR
0.00010009
Loading maneuver chart data...
Computing Atmospheric mass density...

Documentation

Showing up to 5 results
|